sat.trackr.live / text

‹ back to catalog

STARLINK-32821

NORAD 63078 · 2025-037B

PAYLOAD ACTIVE UNKNOWN

§ Identity

Operator
Country
US
Launch date
2025-02-23
Launch site
AFWTR
Launch vehicle
Mass (kg)
RCS (m²)

Purposes: comms

External: N2YO · Heavens-Above · Gunter

§ Orbital elements

Epoch: 2026-09-20T05:09:13.610304Z

Period
94.14 min
Inclination
70.0005°
Eccentricity
0.0002651
Mean motion
15.29585107 rev/d
Perigee alt
475.2 km
Apogee alt
478.9 km
Semi-major
6,855.2 km
B*
5.7205e-4
RAAN
221.8517°
Arg perigee
264.4784°
Mean anomaly
95.6088°
Rev number
8,777

§ Raw data

STARLINK-328211 63078U 25037B   26263.21474086  .00016354  00000+0  57205-3 0  99922 63078  70.0005 221.8517 0002651 264.4784  95.6088 15.29585107 87771

JSON: /api/v1/satellites/63078 · /tle

For live sub-satellite position, see the globe view (requires WebGL).

§ Visibility from observer

Set your observer location to see the next 7 days of passes ≥ 10°. The values pass through the URL so the page stays shareable.

No JS? Fill the form by hand. The geolocation button needs JavaScript.